Regional Weather Roundup
Issued by NWS Upton, NY

Current Version | Previous Version | Text Only | Print | Product List | Glossary On
Versions: 1 2 3 4 5 6 7 8 9 10 11 12 13 14 15 16 17 18 19 20 21 22 23 24 25 26 27 28 29 30 31 32 33 34 35 36 37 38 39 40 41 42 43 44 45 46 47 48 49 50
910
ASUS41 KOKX 192353
RWROKX

REGIONAL WEATHER ROUNDUP
NATIONAL WEATHER SERVICE NEW YORK NY
700 PM EST SUN NOV 19 2017

NOTE: "FAIR" INDICATES FEW OR NO CLOUDS BELOW 12,000 FEET WITH NO
SIGNIFICANT WEATHER AND/OR OBSTRUCTIONS TO VISIBILITY.

NYZ071-072-176-178-NJZ106-104-200100-
NEW YORK CITY METRO AREA

CITY           SKY/WX    TMP DP  RH WIND       PRES   REMARKS
Central Park   PTCLDY    45  24  43 W9        29.71
Bronx Bot Gard NOT AVBL
LaGuardia APRT NOT AVBL
Kennedy INTL   NOT AVBL
Breezy Point   NOT AVBL
Newark/Liberty NOT AVBL
Teterboro      NOT AVBL
$$

NYZ177-179-078>081-200100-
LONG ISLAND NEW YORK

CITY           SKY/WX    TMP DP  RH WIND       PRES   REMARKS
Jones Beach    NOT AVBL
Matinecock PT  NOT AVBL
Farmingdale    NOT AVBL
MacArthur/ISP  NOT AVBL
Shirley        NOT AVBL
Mt Sinai Harb  NOT AVBL
Westhampton    NOT AVBL
East Hampton   CLOUDY    43  26  51 NW16G26   29.63R
Southold       NOT AVBL
Montauk        NOT AVBL
$$

NYZ052-065-067-200100-
HUDSON VALLEY

CITY           SKY/WX    TMP DP  RH WIND       PRES   REMARKS
White Plains   NOT AVBL
Larchmont Harb NOT AVBL
Croton On Huds NOT AVBL
Newburgh       PTCLDY    39  27  60 NW12G21   29.66R WCI  32
Montgomery     NOT AVBL
Poughkeepsie   NOT AVBL
Albany         NOT AVBL
$$

NJZ001-105-106-008-010-013-015-019>022-104-200100-
NEW JERSEY

CITY           SKY/WX    TMP DP  RH WIND       PRES   REMARKS
Newark/Liberty NOT AVBL
Teterboro      NOT AVBL
Caldwell       NOT AVBL
Somerville     NOT AVBL
Linden         CLOUDY    46  25  42 NW6       29.70R
Perth Amboy    NOT AVBL
Sussex         NOT AVBL
Andover        NOT AVBL
Trenton        NOT AVBL
Millville      NOT AVBL
Atlantic City  NOT AVBL
Wrightstown    NOT AVBL
Toms River     NOT AVBL
Belmar         NOT AVBL
$$

PAZ047>061-062-071-200100-
EASTERN PENNSYLVANIA

CITY           SKY/WX    TMP DP  RH WIND       PRES   REMARKS
Philadelphia   NOT AVBL
Allentown      NOT AVBL
Scranton       NOT AVBL
$$

CTZ002-004>006-009-010-012-RIZ004-006-007-MAZ004-011-015-200100-
SOUTHERN NEW ENGLAND
 IN CT

CITY           SKY/WX    TMP DP  RH WIND       PRES   REMARKS
Bradley INTL   NOT AVBL
Hartford       NOT AVBL
Danbury        NOT AVBL
Wtrbury/Oxford NOT AVBL
Norwalk Harbor NOT AVBL
Bridgeport     NOT AVBL
Meriden        NOT AVBL
New Haven      NOT AVBL
Chester        CLOUDY    43  25  49 NW6G17    29.62R
Groton         NOT AVBL
Wilimantic     NOT AVBL

 IN RI

CITY           SKY/WX    TMP DP  RH WIND       PRES   REMARKS
Providence     NOT AVBL
Block Island   NOT AVBL
Westerly       NOT AVBL
 IN MA

CITY           SKY/WX    TMP DP  RH WIND       PRES   REMARKS
Boston         NOT AVBL
Worcester      NOT AVBL
Westfield      NOT AVBL
Provincetown   NOT AVBL
Nantucket      NOT AVBL
$$

ANZ330-335-338-340-345-350-353-355-200100-
COASTAL MARINE OBSERVATIONS


STATION/POSITION TIME  SKY/WX   TEMP    WIND        PRES    VSBY  WAVE
                                AIR SEA DIR/SP/G                  HT/PER
                 (UTC)          (F)     (DEG/KT/KT) (MB)    (MI)  (FT/S)
NY HARB ENTRANCE 2250            50 57  310/ 19/ 25 1003.6          4/ 9
20 S FIRE ISLAND 2250            48 57  320/ 21/ 27 1004.0          8/ 6
GREAT SOUTH BAY  2330            45 48  300/ 16/ 23   N/A
HUDSON CANYON    2250            53 60  290/ 23/ 29 1003.2         14/ 9
KINGS POINT      2324            46 52  350/ 15/ 19 1005.8
EXECUTION ROCKS  2315            46     290/ 14/ 23   N/A
WESTERN LI SOUND 2249            46     290/ 16/ 21   N/A           2/ 3
CENTRAL LI SOUND NOT AVBL
ROBBINS REEF     2324            47     310/  9/ 12 1005.5
$$


>>>>>>>>>>>>>>>>>>>>>>>>>>>> KEY <<<<<<<<<<<<<<<<<<<<<<<<<<<
>                                                          <
>     SKY/WX - Sky Condition/Present Weather               <
>     TMP    - Temperature in Fahrenheit                   <
>     DP     - Dew Point in Fahrenheit                     <
>     RH     - Relative Humidity in Percent                <
>     WIND   - Direction (from) and Speed in MPH           <
>     PRES   - Mean Sea Level Pressure (inches of Hg)      <
>     WCI    - Wind Chill Index                            <
>     VSB    - VISIBILITY IN MILES                         <
>     HX     - HEAT INDEX                                  <
>     TC     - TEMPERATURE IN CELSIUS                      <
>     VRB    - VARIABLE WIND DIRECTION                     <
>                                                          <
>>>>>>>>>>>>>>>>>>>>>>>>>>>> KEY <<<<<<<<<<<<<<<<<<<<<<<<<<<




USA.gov is the U.S. government's official web portal to all federal, state and local government web resources and services.